Regional Weather Roundup
Issued by NWS

Home | Current Version | Previous Version | Graphics & Text | Print | Product List | Glossary On
Versions: 1 2 3 4 5 6 7 8 9 10 11 12 13 14 15 16 17 18 19 20 21 22 23 24 25 26 27 28 29 30 31 32 33 34 35 36 37 38 39 40 41 42 43 44 45 46 47 48 49 50
000
ASUS45 KBOI 201010
RWRID
WEATHER ROUNDUP FOR IDAHO
NATIONAL WEATHER SERVICE BOISE ID
400 AM MDT MON OCT 20 2014

NOTE: "FAIR" INDICATES FEW OR NO CLOUDS BELOW 12000 FEET
WITH NO SIGNIFICANT WEATHER AND/OR OBSTRUCTIONS TO VISIBILITY

IDZ012-014-201100-
SOUTHWEST IDAHO


CITY           SKY/WX    TMP DP  RH WIND       PRES   REMARKS
BOISE          CLEAR     53  32  44 E7        29.86F
CALDWELL       CLEAR     45  30  57 E7        29.87S
MOUNTAIN HOME  CLEAR     57  33  40 SE15      29.88S
$$

IDZ016-017-201100-
SOUTHCENTRAL IDAHO


CITY           SKY/WX    TMP DP  RH WIND       PRES   REMARKS
BURLEY         CLEAR     44  33  65 NE6       29.97F
JEROME         LGT RAIN  49  29  46 NE15      29.96S
TWIN FALLS     CLEAR     53  29  39 NE3       29.94S
$$

IDZ019>023-201100-
SOUTHEAST IDAHO


CITY           SKY/WX    TMP DP  RH WIND       PRES   REMARKS
IDAHO FALLS    PTCLDY    35  29  78 N6        30.06F WCI  30
POCATELLO      CLEAR     35  31  85 NW7       30.04S WCI  29
REXBURG        CLEAR     35  30  82 NE5       30.07F WCI  31
$$

IDZ006-010-011-018-031-032-201100-
CENTRAL IDAHO MOUNTAINS


CITY           SKY/WX    TMP DP  RH WIND       PRES   REMARKS
MCCALL         CLEAR     35  30  82 NE3       29.95S
HAILEY         CLEAR     43  30  61 NW10      30.08F
STANLEY          N/A     28  23  81 S3        30.09S
SALMON         NOT AVBL
CHALLIS        CLEAR     35  27  72 CALM      30.05S
$$

IDZ002-004-006-007-026-201100-
NORTHERN IDAHO


CITY           SKY/WX    TMP DP  RH WIND       PRES   REMARKS
LEWISTON       CLEAR     54  43  66 SE6       29.75R
LOWELL           N/A     45  44  97 VRB3      29.89S
COEUR D`ALENE  CLEAR     46  45  93 NE12      29.77S
MULLAN PASS    CLEAR     49  30  48 S8        29.92F
$$



USA.gov is the U.S. government's official web portal to all federal, state and local government web resources and services.